Regional Weather Roundup
Issued by NWS

Home | Current Version | Previous Version | Text Only | Print | Product List | Glossary Off
Versions: 1 2 3 4 5 6 7 8 9 10 11 12 13 14 15 16 17 18 19 20 21 22 23 24 25 26 27 28 29 30 31 32 33 34 35 36 37 38 39 40 41 42 43 44 45 46 47 48 49 50

000
ASUS45 KCYS 270610
RWRWY

WYOMING REGIONAL WEATHER ROUNDUP
NATIONAL WEATHER SERVICE CHEYENNE WY
1200 AM MDT SAT AUG 27 2016

NOTE:  "FAIR" INDICATES FEW OR NO CLOUDS BELOW 12,000 FEET
WITH NO SIGNIFICANT WEATHER AND/OR OBSTRUCTIONS TO VISIBILITY.

WYZ001-270700-
YELLOWSTONE NATIONAL PARK

CITY           SKY/WX    TMP DP  RH WIND       PRES   REMARKS
LK YELLOWSTONE   N/A     42  31  64 NW5       30.19F
6HR MIN TEMP:  41; 6HR MAX TEMP:  63;

W YELLOWSTONE  NOT AVBL

$$
WYZ002>013-054>058-071-098>099-270700-
NORTHERN WYOMING

CITY           SKY/WX    TMP DP  RH WIND       PRES   REMARKS
JACKSON        FAIR      41  28  60 CALM      30.12S
CODY           FAIR      54  43  66 SW8       30.05S
GREYBULL       FAIR      56  41  57 S3        30.00S
6HR MIN TEMP:  55; 6HR MAX TEMP:  70;

WORLAND        FAIR      51  43  74 S5        30.00F
6HR MIN TEMP:  50; 6HR MAX TEMP:  73;

SHERIDAN       MOCLDY    55  45  68 CALM      30.02S
6HR MIN TEMP:  52; 6HR MAX TEMP:  70;

BUFFALO        FAIR      56  40  55 SW5       30.08F
6HR MIN TEMP:  54; 6HR MAX TEMP:  71;

GILLETTE       MOCLDY    55  46  71 SE9       30.04F
6HR MIN TEMP:  52; 6HR MAX TEMP:  69; 6HR PCP: TRACE;

HULETT         FAIR      50  46  87 S6        30.06F
NEWCASTLE      MOCLDY    55  48  76 NW5       30.07R

$$
WYZ014>020-022>026-101>103-270700-
CENTRAL WYOMING

CITY           SKY/WX    TMP DP  RH WIND       PRES   REMARKS
BIG PINEY      FAIR      45  35  68 E5        30.18S
6HR MIN TEMP:  41; 6HR MAX TEMP:  66;

PINEDALE       FAIR      37  32  81 NW6       30.19S WCI  33
DUBOIS         FAIR      43  30  61 CALM      30.16S
LANDER         FAIR      57  42  57 NW9       30.06S
6HR MIN TEMP:  56; 6HR MAX TEMP:  67;

RIVERTON       FAIR      53  41  63 N3        30.07R
6HR MIN TEMP:  53; 6HR MAX TEMP:  68;

CASPER         FAIR      48  46  93 NW7       30.07F
6HR MIN TEMP:  48; 6HR MAX TEMP:  64; 6HR PCP: TRACE;

DOUGLAS        FAIR      50  46  86 SE3       30.08S
6HR MIN TEMP:  49; 6HR MAX TEMP:  76; 6HR PCP:  0.01;


$$
WYZ021-027>030-104>119-270700-
SOUTHERN WYOMING

CITY           SKY/WX    TMP DP  RH WIND       PRES   REMARKS
EVANSTON       FAIR      54  20  26 VRB3      30.20R
6HR MIN TEMP:  49; 6HR MAX TEMP:  69;

FORT BRIDGER   FAIR      57  21  25 W12       30.21R
ROCK SPRINGS   FAIR      54  35  48 S3        30.16S
6HR MIN TEMP:  53; 6HR MAX TEMP:  65;

DIXON          FAIR      58  38  48 S7        30.24S
RAWLINS        FAIR      57  36  45 SW21G29   30.16F
6HR MIN TEMP:  51; 6HR MAX TEMP:  63;

SARATOGA       FAIR      48  36  61 SE6       30.21S
LARAMIE        MOCLDY    52  36  54 S3        30.22R
6HR MIN TEMP:  52; 6HR MAX TEMP:  68;

CHEYENNE       FAIR      53  45  74 SW9       30.17F
6HR MIN TEMP:  53; 6HR MAX TEMP:  64;

TORRINGTON     FAIR      57  56  96 SE6       30.06F
6HR MIN TEMP:  57; 6HR MAX TEMP:  67; 6HR PCP:  0.01;

PINE BLUFFS    MOCLDY    48  48 100 S8        30.14S

$$



USA.gov is the U.S. government's official web portal to all federal, state and local government web resources and services.